Temperature
14 14 14 13 13 13 13 13 12 12 12 12 12 12 12 12 12 12 12 11 12 12 12 12 12 13 13 13 13 13 13 13 14 14 14 15 15 15 15 16 16 16 16
14 14 14 13 13 13 13 13 13 12 12 12 12 12 12 12 11 11 11 12 12 12 12 12 12 12 12 13 13 13 13 13 13 14 14 14 15 15 15 15 15 15 15
15 14 14 14 13 13 13 13 13 12 12 12 12 12 12 12 11 11 11 11 11 11 12 12 12 12 12 12 13 13 13 13 13 13 14 14 14 14 15 15 15 15 15
15 14 14 14 14 13 13 13 13 12 12 12 12 12 12 12 12 11 11 11 11 11 12 12 12 12 12 12 13 13 13 13 13 13 13 14 14 14 14 14 14 15 15
15 15 14 14 14 13 13 13 13 12 12 12 12 12 12 12 12 11 11 12 12 12 12 12 12 12 12 12 12 13 13 13 13 13 13 13 13 13 14 14 14 14 14
15 15 14 14 14 14 13 13 13 13 12 12 12 12 12 12 12 11 11 12 12 12 12 12 12 12 12 12 12 12 12 13 13 13 13 13 13 13 13 14 14 14 14
15 15 15 14 14 14 13 13 13 13 13 12 12 12 12 12 12 12 12 12 11 12 12 12 12 12 12 12 12 12 12 12 12 13 13 13 13 13 13 13 13 13 14
15 15 15 14 14 14 13 13 13 13 13 13 12 12 12 12 12 12 12 12 12 12 12 12 12 12 12 12 12 12 12 12 12 12 13 13 13 13 13 13 13 13 13
15 15 15 14 14 14 14 13 13 13 13 13 12 12 12 12 12 12 12 12 12 12 12 12 12 12 12 12 12 12 12 12 12 12 12 12 13 13 13 13 12 12 12
15 15 15 14 14 14 14 13 13 13 13 13 13 12 12 12 12 12 12 12 12 12 12 12 12 12 12 12 12 12 12 12 12 12 12 12 12 13 12 13 13 12 12
15 15 14 14 14 14 14 13 13 13 13 13 13 13 12 12 12 12 12 12 12 12 12 12 12 12 12 12 12 12 12 12 12 12 12 12 12 12 12 12 12 12 12
15 15 14 14 14 14 13 13 13 13 13 13 13 13 13 12 12 12 12 12 12 12 12 12 11 11 11 11 12 12 12 12 12 12 12 12 12 12 12 12 12 12 12
15 15 14 14 14 14 13 13 13 13 13 13 13 13 13 12 12 12 12 12 12 12 11 11 11 11 11 11 11 11 11 11 11 11 11 11 11 11 11 12 12 12 12
15 15 14 14 14 13 13 13 13 12 12 12 12 12 12 12 12 12 12 12 12 12 11 11 11 11 11 11 11 11 11 11 11 11 11 11 11 11 11 11 11 11 11
15 14 14 14 13 13 13 12 12 12 12 12 12 12 12 12 12 12 12 12 12 11 11 11 11 11 11 11 11 11 11 11 11 11 11 11 11 11 11 11 11 11 11
14 14 14 13 13 12 12 12 11 11 11 11 11 11 11 11 11 11 11 11 11 11 11 11 11 10 10 10 10 10 10 10 10 10 10 10 10 10 10 10 10 10 11
14 14 13 13 12 12 12 11 11 11 11 11 11 11 11 11 11 11 11 11 11 11 11 10 10 10 10 10 10 10 10 10 10 10 10 10 10 10 10 10 10 10 10
13 13 13 12 12 11 11 11 11 11 11 10 10 10 10 10 10 11 10 10 10 10 10 10 9 9 9 9 9 9 9 9 9 10 10 10 10 10 10 10 10 10 10
13 12 12 11 11 11 10 10 10 10 10 10 10 10 10 10 10 10 10 10 10 9 9 9 9 9 9 9 9 9 9 9 9 9 9 9 9 9 9 9 9 9 9
12 11 11 11 10 10 10 9 9 9 9 9 9 9 9 9 9 9 9 8 8 8 8 8 8 8 8 8 8 8 8 8 8 8 8 8 8 8 8 9 9 9 9
11 11 10 10 10 9 9 9 8 8 8 8 8 8 8 8 8 8 8 7 7 7 7 7 7 7 7 7 7 7 7 7 7 7 7 7 7 8 8 8 8 8 8
10 10 9 9 9 8 8 8 8 8 7 7 7 7 7 7 7 7 6 6 6 6 6 6 6 6 6 6 6 6 6 6 6 6 6 6 7 7 7 7 7 7 7
9 9 9 8 8 8 7 7 7 7 7 6 6 6 6 6 6 5 5 5 5 5 5 5 5 5 5 5 5 5 5 5 5 5 5 6 6 6 6 6 6 6 7
9 8 8 8 7 7 7 6 6 6 6 6 5 5 5 5 5 5 5 4 4 4 4 4 4 4 4 4 4 4 4 4 4 4 4 5 5 5 5 5 5 5 6
8 8 7 7 7 6 6 6 6 5 5 5 5 5 4 4 4 4 4 4 4 4 4 4 4 4 4 4 4 4 4 4 4 4 4 4 4 4 4 4 4 5 5
7 7 7 6 6 6 6 5 5 5 4 4 4 4 4 4 4 3 3 3 3 3 3 3 3 3 3 3 3 3 3 3 3 3 3 3 3 3 3 3 4 4 4
Wind_Speed
3 3 3 3 3 3 3 4 4 4 5 5 5 5 5 4 3 1 1 1 1 1 1 2 2 2 2 3 3 3 3 3 3 2 1 1 2 3 3 5 7 7 9
2 2 2 3 3 3 4 5 4 5 5 5 5 5 4 4 4 2 2 1 0 1 1 1 2 2 2 3 3 3 3 3 3 3 2 1 2 3 3 3 4 6 7
2 1 2 2 3 4 4 5 4 4 5 5 5 5 5 4 4 3 2 1 1 1 1 2 2 2 3 2 3 3 3 3 3 3 2 1 1 2 2 2 3 3 4
1 1 2 3 3 4 4 4 4 4 4 5 5 4 4 4 3 3 2 2 2 2 1 2 2 3 4 4 4 4 4 3 3 3 2 1 1 2 3 3 2 2 3
2 2 3 3 3 3 4 4 4 4 4 4 4 5 5 4 3 3 2 2 2 3 2 2 2 2 3 4 3 4 4 4 4 4 3 2 2 3 3 3 3 2 2
3 3 3 3 3 3 3 4 4 4 4 4 4 5 5 4 6 6 3 2 2 3 3 4 3 2 2 3 4 5 6 5 5 4 3 4 4 4 3 4 3 3 3
3 3 3 2 3 3 3 3 4 4 3 4 4 4 5 6 7 6 5 2 2 3 3 3 4 3 3 2 2 2 4 5 6 5 5 5 5 5 5 5 5 4 3
3 3 3 3 3 3 3 4 4 3 3 3 4 4 5 6 8 6 5 3 2 3 3 2 2 3 3 2 1 1 1 2 4 4 4 5 5 5 6 5 4 2 1
2 3 3 3 3 3 3 4 3 3 3 3 3 4 5 7 8 7 4 2 3 4 3 3 3 3 5 3 1 1 2 3 3 3 4 5 6 7 6 4 4 3 3
3 3 3 2 2 3 4 4 3 2 3 4 4 4 4 5 8 8 5 1 2 3 4 4 5 5 5 3 1 1 2 3 2 2 1 2 3 5 7 7 6 5 3
2 1 1 1 2 2 3 2 3 3 3 4 4 5 4 5 7 7 5 1 1 2 3 3 4 7 6 4 2 1 3 3 2 1 1 1 1 2 3 4 5 5 5
2 1 1 2 2 1 2 3 3 3 3 4 4 5 4 4 5 6 6 3 1 0 2 3 4 7 6 5 3 3 3 2 1 1 1 2 2 2 3 3 4 4 4
3 1 1 2 2 2 2 2 3 2 2 3 3 4 5 5 5 7 7 6 4 1 2 4 5 7 6 5 5 5 4 2 1 1 2 2 2 3 2 2 2 2 2
3 1 1 2 2 3 2 2 2 2 2 3 3 4 4 5 5 5 4 4 4 3 3 4 5 6 5 5 5 5 3 2 2 2 2 2 2 1 2 2 2 2 2
3 2 2 2 2 2 2 2 1 1 1 1 2 2 3 5 5 5 3 3 2 2 2 3 4 5 5 5 4 4 4 3 3 2 2 2 2 2 2 2 2 3 3
4 2 1 1 1 2 2 3 4 3 6 7 6 4 2 3 6 7 6 6 6 5 4 4 4 4 4 5 5 5 4 4 3 3 3 2 3 3 3 2 2 3 4
5 3 2 2 2 2 2 2 3 5 6 8 9 10 8 9 9 8 7 7 8 7 5 4 4 4 4 4 4 4 4 4 4 3 3 3 3 3 3 3 3 3 4
4 4 4 2 2 2 2 2 2 3 4 5 7 10 10 10 11 10 9 7 7 7 4 4 4 4 4 4 4 4 4 4 4 4 4 4 4 3 3 4 4 4 5
5 3 3 3 2 2 2 3 3 3 3 3 4 6 10 9 10 11 9 6 5 5 5 4 4 4 4 5 5 5 4 4 4 4 4 5 4 4 5 4 4 6 5
4 7 6 4 3 3 3 3 3 3 4 4 5 5 5 6 6 7 6 5 4 4 4 4 5 5 5 5 5 5 5 4 5 5 5 5 5 5 6 6 6 5 5
4 5 7 5 3 3 3 3 2 3 3 3 3 5 7 5 5 5 5 5 4 4 4 4 4 5 5 4 5 5 5 5 5 5 5 5 5 6 6 6 7 7 6
5 4 4 4 3 3 3 2 2 2 3 3 3 4 7 4 4 4 4 4 4 4 4 3 4 4 4 4 5 5 6 6 6 6 7 6 6 6 6 6 7 7 7
6 5 4 3 3 4 3 2 2 2 2 2 2 2 3 3 3 3 4 4 4 4 4 4 4 5 5 5 5 4 5 6 7 7 8 8 7 7 7 7 8 9 8
6 6 5 4 3 3 3 2 2 1 1 1 2 2 2 2 3 3 3 4 4 4 4 4 4 6 8 7 7 7 7 9 10 8 9 9 9 8 8 8 8 9 9
6 5 5 4 3 3 2 2 1 1 1 1 1 1 2 3 3 4 4 4 4 4 5 6 5 6 8 9 9 10 13 15 14 12 9 8 10 10 10 10 9 10 9
5 5 4 4 3 3 3 2 1 1 0 1 1 1 2 3 3 4 4 4 4 5 5 6 7 9 10 10 12 14 15 16 16 16 12 9 9 9 10 9 12 10 11
Wind_Direction
263 277 299 306 318 325 325 321 320 323 330 335 335 337 340 338 332 318 279 250 234 270 265 231 246 228 212 204 201 195 196 190 216 247 237 234 198 202 187 195 202 197 199
253 269 286 306 327 332 327 324 325 330 333 335 339 344 343 344 344 340 315 322 282 268 266 237 249 235 220 211 202 203 202 202 200 224 222 204 216 194 182 185 188 190 188
241 263 297 317 325 320 317 322 330 335 339 345 349 348 345 344 347 348 348 337 322 298 277 255 255 227 226 224 214 208 206 208 199 209 220 203 205 180 153 165 179 177 178
213 249 286 298 303 305 312 321 331 338 342 343 344 343 339 340 349 350 0 1 348 329 304 280 264 234 223 220 222 215 205 205 200 203 208 201 201 178 159 175 187 182 182
209 244 269 284 298 311 321 324 330 341 342 337 345 347 344 341 353 3 4 6 354 346 340 323 298 276 238 222 220 209 200 205 202 203 202 195 199 188 188 185 189 175 187
213 243 269 293 304 310 314 323 330 333 336 345 347 343 345 344 351 4 12 1 348 346 340 334 324 323 307 276 244 218 200 202 206 203 208 207 209 208 197 189 178 183 209
223 248 267 279 291 298 311 327 325 322 331 339 337 340 336 331 342 355 6 8 351 339 333 334 343 345 344 328 308 264 226 222 214 203 210 216 207 201 190 194 199 204 213
228 254 268 271 279 294 311 311 309 309 313 315 322 328 329 332 346 351 1 15 354 341 332 321 327 331 333 338 331 339 294 263 239 224 218 225 220 205 194 200 198 195 195
232 258 267 263 273 291 300 298 298 304 310 305 303 322 327 326 340 346 3 7 354 344 347 354 351 337 336 346 355 311 314 305 282 250 239 236 228 211 189 173 180 195 221
239 254 266 260 264 278 285 291 293 291 293 305 312 316 315 314 331 342 357 17 351 343 347 349 353 352 345 349 336 278 289 293 304 308 286 262 233 213 199 196 193 198 202
231 248 315 303 276 278 295 302 305 310 319 324 322 324 325 321 331 344 354 20 305 328 338 338 335 345 351 352 342 270 275 284 285 277 278 264 236 222 214 208 202 199 205
141 111 348 338 334 348 343 337 339 343 342 337 339 338 338 335 337 341 351 354 339 291 307 315 322 340 348 348 340 324 324 326 285 262 250 257 247 240 230 217 210 213 220
119 96 12 10 7 9 15 357 359 4 360 343 346 339 332 335 337 344 349 353 358 354 300 320 336 348 351 354 355 355 358 359 334 292 266 258 244 232 219 215 219 220 224
121 100 57 42 16 14 23 25 24 4 354 348 345 334 329 337 341 341 344 351 356 2 356 351 358 6 10 1 1 4 4 345 324 299 292 284 269 233 224 216 218 218 231
119 100 71 52 31 15 17 18 11 11 48 11 333 323 333 336 341 355 14 4 1 3 15 21 20 12 9 6 360 355 355 357 353 334 318 311 299 281 263 232 217 220 229
123 108 90 70 46 33 19 14 18 29 34 42 37 28 353 343 346 6 18 22 26 40 57 33 17 9 360 353 349 346 345 345 338 329 322 315 305 294 284 262 237 238 246
135 131 108 88 69 49 42 36 7 5 20 27 26 26 27 20 20 20 26 41 43 52 55 27 10 358 349 343 339 337 335 331 329 324 318 312 304 296 287 276 263 255 253
129 121 117 102 86 69 56 46 43 32 16 3 7 17 22 29 32 33 37 51 44 44 39 21 5 355 349 344 339 334 329 332 337 334 325 316 307 298 291 283 273 266 262
125 121 110 98 85 76 67 61 56 49 37 15 6 8 14 22 34 35 42 51 44 30 21 13 4 355 351 349 345 339 335 333 332 330 325 320 315 305 295 286 279 272 265
127 126 118 105 89 77 70 68 61 55 46 35 23 7 4 27 35 28 32 34 33 21 9 4 357 353 349 346 343 343 342 339 333 328 321 316 312 304 297 293 289 284 272
126 125 120 106 98 94 87 80 72 66 57 44 25 23 37 45 36 27 26 23 18 7 0 356 350 348 349 347 343 343 342 336 333 327 318 311 306 302 299 295 290 283 279
128 123 120 117 110 101 97 89 81 70 54 41 17 20 31 39 29 22 15 9 4 358 352 349 347 343 343 342 338 336 335 333 329 324 318 312 306 300 296 293 292 288 282
130 126 119 111 109 105 93 81 78 74 57 37 21 16 19 20 14 5 357 351 349 347 346 347 344 339 338 337 334 328 328 326 320 315 312 308 305 301 295 290 288 287 282
134 133 131 125 116 111 108 94 80 73 61 39 24 13 0 351 344 339 335 332 334 333 336 339 335 332 333 334 331 328 324 320 319 313 306 303 301 298 295 290 286 285 283
136 136 137 138 137 135 130 120 102 81 61 36 8 348 335 333 330 325 322 322 324 325 328 330 329 329 328 326 327 326 324 321 318 315 309 300 296 294 294 292 288 285 283
143 143 145 147 151 155 155 157 163 167 215 310 316 315 318 322 321 320 321 321 322 320 319 323 323 321 320 320 321 321 322 323 321 317 311 301 295 292 293 291 290 284 281
Height
1504 1503 1501 1500 1498 1496 1493 1491 1488 1485 1482 1479 1477 1474 1472 1470 1468 1467 1467 1467 1468 1468 1469 1470 1471 1472 1473 1475 1476 1478 1480 1481 1482 1484 1486 1487 1489 1491 1494 1496 1499 1502 1504
1503 1502 1500 1499 1497 1495 1493 1491 1488 1485 1483 1480 1477 1474 1472 1470 1468 1467 1466 1466 1466 1466 1467 1468 1469 1470 1471 1472 1474 1475 1477 1478 1480 1481 1482 1484 1486 1488 1490 1492 1495 1498 1500
1502 1501 1500 1498 1496 1495 1493 1490 1488 1485 1483 1480 1478 1475 1473 1471 1469 1467 1466 1466 1465 1465 1465 1466 1467 1467 1469 1470 1471 1472 1474 1476 1477 1478 1479 1481 1483 1484 1486 1489 1491 1494 1496
1501 1500 1499 1497 1496 1494 1492 1490 1488 1486 1483 1481 1479 1476 1474 1472 1470 1468 1467 1466 1465 1465 1465 1465 1465 1465 1466 1467 1468 1470 1471 1473 1474 1475 1476 1477 1479 1481 1483 1485 1487 1490 1492
1500 1499 1498 1497 1495 1493 1492 1490 1488 1486 1484 1482 1480 1477 1475 1473 1471 1469 1468 1466 1465 1464 1464 1464 1463 1464 1465 1465 1466 1467 1469 1470 1471 1472 1473 1475 1476 1477 1479 1482 1484 1486 1488
1498 1498 1497 1496 1494 1493 1491 1490 1488 1486 1484 1482 1480 1478 1476 1474 1472 1470 1468 1467 1466 1464 1463 1463 1462 1462 1463 1463 1464 1465 1466 1467 1468 1469 1470 1472 1473 1475 1477 1478 1480 1482 1484
1497 1496 1496 1495 1493 1492 1491 1489 1488 1486 1484 1482 1480 1478 1476 1474 1472 1471 1469 1467 1466 1465 1463 1462 1462 1462 1462 1462 1463 1463 1464 1465 1466 1467 1467 1469 1470 1472 1473 1475 1476 1478 1480
1495 1495 1494 1493 1492 1491 1490 1488 1487 1485 1484 1482 1480 1478 1476 1475 1473 1471 1469 1468 1466 1465 1464 1462 1462 1461 1461 1461 1461 1462 1462 1463 1463 1464 1465 1466 1467 1468 1470 1471 1472 1474 1476
1494 1493 1493 1492 1491 1490 1489 1487 1486 1484 1483 1482 1480 1478 1476 1475 1473 1471 1470 1468 1466 1465 1464 1462 1462 1461 1461 1461 1460 1460 1460 1460 1461 1461 1462 1463 1464 1465 1466 1468 1469 1470 1471
1492 1492 1491 1491 1490 1489 1487 1486 1485 1483 1482 1481 1479 1478 1476 1474 1473 1471 1469 1468 1466 1465 1464 1463 1462 1461 1460 1460 1459 1459 1459 1459 1459 1459 1459 1460 1461 1462 1463 1464 1465 1467 1468
1491 1490 1490 1489 1488 1487 1486 1485 1483 1482 1481 1479 1478 1477 1475 1473 1472 1470 1469 1467 1466 1465 1463 1462 1461 1461 1460 1459 1459 1458 1457 1457 1457 1457 1457 1457 1458 1459 1460 1461 1462 1463 1464
1489 1489 1488 1488 1487 1486 1485 1483 1482 1480 1479 1478 1476 1475 1474 1472 1471 1469 1468 1467 1465 1464 1463 1462 1461 1460 1459 1458 1457 1457 1456 1456 1455 1455 1454 1455 1455 1456 1457 1458 1459 1460 1460
1487 1487 1487 1486 1485 1484 1483 1482 1480 1479 1477 1476 1475 1474 1472 1471 1470 1469 1467 1466 1465 1464 1462 1461 1460 1459 1458 1457 1456 1455 1454 1454 1453 1453 1453 1453 1453 1453 1454 1454 1455 1455 1456
1486 1485 1485 1484 1483 1482 1481 1480 1479 1477 1476 1475 1474 1472 1471 1470 1469 1468 1466 1465 1464 1463 1462 1461 1459 1458 1457 1456 1455 1454 1453 1452 1451 1451 1451 1450 1450 1450 1451 1451 1451 1451 1452
1483 1483 1483 1482 1482 1481 1480 1479 1477 1476 1475 1474 1472 1471 1470 1468 1467 1466 1465 1464 1463 1462 1461 1460 1459 1457 1456 1455 1454 1453 1452 1451 1450 1450 1449 1448 1447 1447 1447 1448 1448 1448 1448
1481 1481 1481 1481 1480 1479 1479 1478 1476 1475 1474 1472 1471 1470 1469 1468 1466 1465 1464 1462 1461 1460 1459 1458 1457 1456 1455 1454 1453 1452 1451 1450 1449 1448 1447 1446 1445 1445 1444 1444 1444 1444 1444
1479 1479 1479 1479 1478 1478 1477 1476 1475 1475 1473 1472 1470 1469 1467 1466 1465 1463 1462 1461 1460 1459 1457 1456 1455 1454 1453 1452 1451 1450 1449 1448 1447 1446 1445 1444 1443 1442 1441 1441 1441 1440 1440
1477 1477 1477 1477 1476 1476 1475 1474 1474 1473 1472 1470 1469 1468 1466 1465 1463 1462 1461 1460 1458 1457 1456 1455 1454 1453 1452 1450 1449 1448 1447 1445 1444 1443 1442 1441 1440 1439 1438 1437 1437 1436 1435
1474 1475 1475 1475 1475 1474 1474 1473 1472 1471 1470 1469 1468 1467 1465 1464 1462 1461 1459 1458 1456 1456 1455 1454 1452 1451 1450 1449 1447 1446 1444 1443 1441 1440 1439 1438 1437 1435 1434 1433 1432 1431 1431
1472 1473 1473 1473 1473 1473 1472 1472 1471 1470 1469 1468 1467 1466 1464 1463 1461 1459 1458 1457 1455 1454 1453 1452 1451 1449 1448 1446 1445 1443 1441 1440 1438 1437 1435 1434 1433 1432 1430 1429 1428 1427 1426
1470 1471 1471 1471 1471 1471 1471 1470 1470 1469 1468 1467 1466 1465 1463 1462 1460 1459 1457 1456 1455 1453 1452 1450 1449 1447 1445 1444 1442 1440 1438 1436 1435 1433 1431 1430 1428 1427 1426 1425 1423 1422 1421
1468 1469 1469 1470 1470 1470 1470 1469 1469 1468 1467 1466 1465 1464 1463 1461 1460 1458 1457 1455 1454 1452 1450 1449 1447 1445 1443 1441 1439 1437 1435 1433 1431 1429 1427 1425 1423 1422 1421 1419 1418 1417 1416
1466 1467 1467 1468 1468 1468 1468 1468 1468 1467 1466 1465 1464 1463 1462 1460 1459 1457 1456 1454 1452 1450 1448 1446 1444 1442 1440 1438 1436 1433 1431 1429 1427 1424 1422 1420 1418 1416 1415 1413 1412 1410 1409
1464 1465 1465 1466 1466 1467 1467 1466 1466 1466 1465 1464 1463 1462 1460 1459 1457 1456 1454 1452 1450 1448 1446 1443 1441 1439 1436 1434 1432 1429 1427 1424 1422 1419 1417 1415 1412 1410 1409 1407 1405 1404 1403
1462 1463 1464 1464 1465 1465 1465 1465 1464 1464 1463 1462 1461 1460 1459 1457 1455 1454 1452 1450 1447 1445 1443 1440 1438 1435 1432 1430 1427 1424 1422 1419 1416 1414 1411 1408 1406 1404 1402 1400 1398 1397 1396
1460 1461 1462 1462 1463 1463 1463 1463 1463 1462 1461 1460 1459 1458 1456 1454 1453 1451 1448 1446 1444 1441 1439 1436 1433 1430 1427 1424 1421 1418 1415 1412 1410 1407 1404 1401 1398 1396 1394 1392 1391 1390 1388